Time,TemperatureF,DewpointF,PressureIn,WindDirection,WindDirectionDegrees,WindSpeedMPH,WindSpeedGustMPH,Humidity,HourlyPrecipIn,Conditions,Clouds,dailyrainin,SolarRadiationWatts/m^2,SoftwareType,DateUTC
2013-11-04 00:02:00,45.0,31.0,-100.00,SE,142,6.0,17.0,57,0.00,,,0.00,0.000000,,2013-11-04 06:02:00,
2013-11-04 00:42:00,46.0,32.0,-100.00,SSE,151,6.0,15.0,57,0.00,,,0.00,0.000000,,2013-11-04 06:42:00,
2013-11-04 00:52:00,46.0,32.0,-100.00,SSE,151,6.0,15.0,57,0.00,,,0.00,0.000000,,2013-11-04 06:52:00,
2013-11-04 01:01:00,46.0,32.0,-100.00,SSE,151,6.0,15.0,57,0.00,,,0.00,0.000000,,2013-11-04 07:01:00,
2013-11-04 01:43:00,47.0,33.0,-100.00,SSE,149,6.0,17.0,57,0.00,,,0.00,0.000000,,2013-11-04 07:43:00,
2013-11-04 01:52:00,47.0,33.0,-100.00,SSE,149,6.0,17.0,57,0.00,,,0.00,0.000000,,2013-11-04 07:52:00,
2013-11-04 02:02:00,47.0,33.0,-100.00,SSE,149,6.0,17.0,57,0.00,,,0.00,0.000000,,2013-11-04 08:02:00,
2013-11-04 02:42:00,47.0,32.0,-100.00,SSE,150,6.0,17.0,56,0.00,,,0.00,0.000000,,2013-11-04 08:42:00,
2013-11-04 02:52:00,47.0,32.0,-100.00,SSE,150,6.0,17.0,56,0.00,,,0.00,0.000000,,2013-11-04 08:52:00,
2013-11-04 03:02:00,47.0,32.0,-100.00,SSE,150,6.0,17.0,56,0.00,,,0.00,0.000000,,2013-11-04 09:02:00,
2013-11-04 03:43:00,47.0,32.0,-100.00,SSE,151,7.0,18.0,56,0.00,,,0.00,0.000000,,2013-11-04 09:43:00,
2013-11-04 03:53:00,47.0,32.0,-100.00,SSE,151,7.0,18.0,56,0.00,,,0.00,0.000000,,2013-11-04 09:53:00,
2013-11-04 04:03:00,47.0,32.0,-100.00,SSE,151,7.0,18.0,56,0.00,,,0.00,0.000000,,2013-11-04 10:03:00,
2013-11-04 04:42:00,48.0,33.0,-100.00,SSE,159,7.0,18.0,56,0.00,,,0.00,0.000000,,2013-11-04 10:42:00,
2013-11-04 04:52:00,48.0,33.0,-100.00,SSE,159,7.0,18.0,56,0.00,,,0.00,0.000000,,2013-11-04 10:52:00,
2013-11-04 05:02:00,48.0,33.0,-100.00,SSE,159,7.0,18.0,56,0.00,,,0.00,0.000000,,2013-11-04 11:02:00,
2013-11-04 05:43:00,48.0,34.0,-100.00,SSE,154,5.0,19.0,57,0.00,,,0.00,0.000000,,2013-11-04 11:43:00,
2013-11-04 05:52:00,48.0,34.0,-100.00,SSE,154,5.0,19.0,57,0.00,,,0.00,0.000000,,2013-11-04 11:52:00,
2013-11-04 06:02:00,48.0,34.0,-100.00,SSE,154,5.0,19.0,57,0.00,,,0.00,0.000000,,2013-11-04 12:02:00,
2013-11-04 06:42:00,47.0,35.0,-100.00,SSE,158,6.0,22.0,62,0.00,,,0.00,0.000000,,2013-11-04 12:42:00,
2013-11-04 06:52:00,47.0,35.0,-100.00,SSE,158,6.0,22.0,62,0.00,,,0.00,0.000000,,2013-11-04 12:52:00,
2013-11-04 07:01:00,47.0,35.0,-100.00,SSE,158,6.0,22.0,62,0.00,,,0.00,0.000000,,2013-11-04 13:01:00,
2013-11-04 07:42:00,47.0,35.0,-100.00,SSE,153,6.0,17.0,64,0.00,,,0.00,0.000000,,2013-11-04 13:42:00,
2013-11-04 07:52:00,47.0,35.0,-100.00,SSE,153,6.0,17.0,64,0.00,,,0.00,0.000000,,2013-11-04 13:52:00,
2013-11-04 08:02:00,47.0,35.0,-100.00,SSE,153,6.0,17.0,64,0.00,,,0.00,0.000000,,2013-11-04 14:02:00,
2013-11-04 08:42:00,47.0,36.0,-100.00,SSE,156,6.0,15.0,65,0.00,,,0.00,6.000000,,2013-11-04 14:42:00,
2013-11-04 08:52:00,47.0,36.0,-100.00,SSE,156,6.0,15.0,65,0.00,,,0.00,6.000000,,2013-11-04 14:52:00,
2013-11-04 09:02:00,47.0,36.0,-100.00,SSE,156,6.0,15.0,65,0.00,,,0.00,6.000000,,2013-11-04 15:02:00,
2013-11-04 09:42:00,47.0,37.0,-100.00,SSE,156,5.0,17.0,68,0.00,,,0.00,16.000000,,2013-11-04 15:42:00,
2013-11-04 09:52:00,47.0,37.0,-100.00,SSE,156,5.0,17.0,68,0.00,,,0.00,16.000000,,2013-11-04 15:52:00,
2013-11-04 10:03:00,47.0,37.0,-100.00,SSE,156,5.0,17.0,68,0.00,,,0.00,16.000000,,2013-11-04 16:03:00,
2013-11-04 10:43:00,45.0,40.0,-100.00,SSE,159,5.0,13.0,81,0.01,,,0.01,17.000000,,2013-11-04 16:43:00,
2013-11-04 10:53:00,45.0,40.0,-100.00,SSE,159,5.0,13.0,81,0.01,,,0.01,17.000000,,2013-11-04 16:53:00,
2013-11-04 11:03:00,45.0,40.0,-100.00,SSE,159,5.0,13.0,81,0.01,,,0.01,17.000000,,2013-11-04 17:03:00,
2013-11-04 11:42:00,46.0,39.0,-100.00,SSE,159,4.0,14.0,76,0.00,,,0.01,16.000000,,2013-11-04 17:42:00,
2013-11-04 11:53:00,46.0,39.0,-100.00,SSE,159,4.0,14.0,76,0.00,,,0.01,16.000000,,2013-11-04 17:53:00,
2013-11-04 12:01:00,46.0,39.0,-100.00,SSE,159,4.0,14.0,76,0.00,,,0.01,16.000000,,2013-11-04 18:01:00,
2013-11-04 12:42:00,44.0,42.0,-100.00,South,186,4.0,13.0,94,0.06,,,0.07,17.000000,,2013-11-04 18:42:00,
2013-11-04 12:52:00,44.0,42.0,-100.00,South,186,4.0,13.0,94,0.06,,,0.07,17.000000,,2013-11-04 18:52:00,
2013-11-04 13:01:00,44.0,42.0,-100.00,South,186,4.0,13.0,94,0.06,,,0.07,17.000000,,2013-11-04 19:01:00,
2013-11-04 13:42:00,44.0,43.0,-100.00,South,190,5.0,12.0,96,0.06,,,0.13,33.000000,,2013-11-04 19:42:00,
2013-11-04 13:52:00,44.0,43.0,-100.00,South,190,5.0,12.0,96,0.06,,,0.13,33.000000,,2013-11-04 19:52:00,
2013-11-04 14:01:00,44.0,43.0,-100.00,South,190,5.0,12.0,96,0.06,,,0.13,33.000000,,2013-11-04 20:01:00,
2013-11-04 14:42:00,45.0,44.0,-100.00,SSW,200,5.0,14.0,95,0.00,,,0.13,13.000000,,2013-11-04 20:42:00,
2013-11-04 14:52:00,45.0,44.0,-100.00,SSW,200,5.0,14.0,95,0.00,,,0.13,13.000000,,2013-11-04 20:52:00,
2013-11-04 15:03:00,45.0,44.0,-100.00,SSW,200,5.0,14.0,95,0.00,,,0.13,13.000000,,2013-11-04 21:03:00,
2013-11-04 15:45:00,45.0,42.0,-100.00,WSW,239,6.0,13.0,90,0.00,,,0.13,11.000000,,2013-11-04 21:45:00,
2013-11-04 15:54:00,45.0,42.0,-100.00,WSW,239,6.0,13.0,90,0.00,,,0.13,11.000000,,2013-11-04 21:54:00,
2013-11-04 16:04:00,45.0,42.0,-100.00,WSW,239,6.0,13.0,90,0.00,,,0.13,11.000000,,2013-11-04 22:04:00,
2013-11-04 16:43:00,45.0,42.0,-100.00,WSW,245,4.0,11.0,88,0.00,,,0.13,35.000000,,2013-11-04 22:43:00,
2013-11-04 16:53:00,45.0,42.0,-100.00,WSW,245,4.0,11.0,88,0.00,,,0.13,35.000000,,2013-11-04 22:53:00,
2013-11-04 17:03:00,45.0,42.0,-100.00,WSW,245,4.0,11.0,88,0.00,,,0.13,35.000000,,2013-11-04 23:03:00,
2013-11-04 17:43:00,44.0,38.0,-100.00,WSW,250,5.0,17.0,80,0.00,,,0.13,28.000000,,2013-11-04 23:43:00,
2013-11-04 17:53:00,44.0,38.0,-100.00,WSW,250,5.0,17.0,80,0.00,,,0.13,28.000000,,2013-11-04 23:53:00,
2013-11-04 18:02:00,44.0,38.0,-100.00,WSW,250,5.0,17.0,80,0.00,,,0.13,28.000000,,2013-11-05 00:02:00,
2013-11-04 18:42:00,43.0,37.0,-100.00,WSW,254,8.0,18.0,79,0.00,,,0.13,0.000000,,2013-11-05 00:42:00,
2013-11-04 18:52:00,43.0,37.0,-100.00,WSW,254,8.0,18.0,79,0.00,,,0.13,0.000000,,2013-11-05 00:52:00,
2013-11-04 19:02:00,43.0,37.0,-100.00,WSW,254,8.0,18.0,79,0.00,,,0.13,0.000000,,2013-11-05 01:02:00,
2013-11-04 19:42:00,37.0,34.0,-100.00,WSW,242,0.0,10.0,89,0.00,,,0.13,0.000000,,2013-11-05 01:42:00,
2013-11-04 19:52:00,37.0,34.0,-100.00,WSW,242,0.0,10.0,89,0.00,,,0.13,0.000000,,2013-11-05 01:52:00,
2013-11-04 20:02:00,37.0,34.0,-100.00,WSW,242,0.0,10.0,89,0.00,,,0.13,0.000000,,2013-11-05 02:02:00,
2013-11-04 20:42:00,31.0,30.0,-100.00,SW,214,0.0,1.0,97,0.00,,,0.13,0.000000,,2013-11-05 02:42:00,
2013-11-04 20:52:00,31.0,30.0,-100.00,SW,214,0.0,1.0,97,0.00,,,0.13,0.000000,,2013-11-05 02:52:00,
2013-11-04 21:02:00,31.0,30.0,-100.00,SW,214,0.0,1.0,97,0.00,,,0.13,0.000000,,2013-11-05 03:02:00,
2013-11-04 21:44:00,29.0,29.0,-100.00,SSW,197,0.0,2.0,99,0.00,,,0.13,0.000000,,2013-11-05 03:44:00,
2013-11-04 21:54:00,29.0,29.0,-100.00,SSW,197,0.0,2.0,99,0.00,,,0.13,0.000000,,2013-11-05 03:54:00,
2013-11-04 22:03:00,29.0,29.0,-100.00,SSW,197,0.0,2.0,99,0.00,,,0.13,0.000000,,2013-11-05 04:03:00,
2013-11-04 22:43:00,30.0,30.0,-100.00,SSW,204,0.0,4.0,99,0.00,,,0.13,0.000000,,2013-11-05 04:43:00,
2013-11-04 22:53:00,30.0,30.0,-100.00,SSW,204,0.0,4.0,99,0.00,,,0.13,0.000000,,2013-11-05 04:53:00,
2013-11-04 23:03:00,30.0,30.0,-100.00,SSW,204,0.0,4.0,99,0.00,,,0.13,0.000000,,2013-11-05 05:03:00,
2013-11-04 23:44:00,29.0,29.0,-100.00,SSW,195,0.0,2.0,99,0.00,,,0.13,0.000000,,2013-11-05 05:44:00,
2013-11-04 23:54:00,29.0,29.0,-100.00,SSW,195,0.0,2.0,99,0.00,,,0.13,0.000000,,2013-11-05 05:54:00,